Time,TemperatureF,DewpointF,PressureIn,WindDirection,WindDirectionDegrees,WindSpeedMPH,WindSpeedGustMPH,Humidity,HourlyPrecipIn,Conditions,Clouds,dailyrainin,SoftwareType,DateUTC
2013-04-28 00:01:00,45.4,39.0,30.25,West,268,0.0,-999.0,77,-99.99,,,0.00,weatherlink.com 1.10,2013-04-28 04:01:00,
2013-04-28 00:16:00,45.0,39.0,30.25,West,268,0.0,-999.0,79,-99.99,,,0.00,weatherlink.com 1.10,2013-04-28 04:16:00,
2013-04-28 00:31:00,44.6,38.0,30.25,West,268,0.0,-999.0,79,-99.99,,,0.00,weatherlink.com 1.10,2013-04-28 04:31:00,
2013-04-28 00:46:00,44.2,38.0,30.26,West,268,0.0,-999.0,80,-99.99,,,0.00,weatherlink.com 1.10,2013-04-28 04:46:00,
2013-04-28 01:01:00,43.9,38.0,30.26,West,268,0.0,-999.0,80,-99.99,,,0.00,weatherlink.com 1.10,2013-04-28 05:01:00,
2013-04-28 01:16:00,43.5,38.0,30.26,West,268,0.0,-999.0,81,-99.99,,,0.00,weatherlink.com 1.10,2013-04-28 05:16:00,
2013-04-28 01:31:00,43.2,38.0,30.25,West,268,0.0,-999.0,81,-99.99,,,0.00,weatherlink.com 1.10,2013-04-28 05:31:00,
2013-04-28 01:46:00,42.8,38.0,30.25,West,268,0.0,-999.0,82,-99.99,,,0.00,weatherlink.com 1.10,2013-04-28 05:46:00,
2013-04-28 02:01:00,42.5,38.0,30.25,West,268,0.0,-999.0,83,-99.99,,,0.00,weatherlink.com 1.10,2013-04-28 06:01:00,
2013-04-28 02:16:00,42.2,37.0,30.25,West,268,0.0,-999.0,83,-99.99,,,0.00,weatherlink.com 1.10,2013-04-28 06:16:00,
2013-04-28 02:31:00,41.9,37.0,30.25,West,268,0.0,-999.0,84,-99.99,,,0.00,weatherlink.com 1.10,2013-04-28 06:31:00,
2013-04-28 02:46:00,41.6,37.0,30.24,West,268,0.0,-999.0,84,-99.99,,,0.00,weatherlink.com 1.10,2013-04-28 06:46:00,
2013-04-28 03:01:00,41.3,37.0,30.24,West,268,0.0,-999.0,84,-99.99,,,0.00,weatherlink.com 1.10,2013-04-28 07:01:00,
2013-04-28 03:16:00,41.1,37.0,30.24,West,268,0.0,-999.0,85,-99.99,,,0.00,weatherlink.com 1.10,2013-04-28 07:16:00,
2013-04-28 03:31:00,40.7,37.0,30.24,West,268,0.0,-999.0,85,-99.99,,,0.00,weatherlink.com 1.10,2013-04-28 07:31:00,
2013-04-28 03:46:00,40.5,36.0,30.24,West,268,0.0,-999.0,85,-99.99,,,0.00,weatherlink.com 1.10,2013-04-28 07:46:00,
2013-04-28 04:01:00,40.1,36.0,30.24,West,268,0.0,-999.0,85,-99.99,,,0.00,weatherlink.com 1.10,2013-04-28 08:01:00,
2013-04-28 04:16:00,39.7,36.0,30.25,West,268,0.0,-999.0,86,-99.99,,,0.00,weatherlink.com 1.10,2013-04-28 08:16:00,
2013-04-28 04:31:00,39.6,36.0,30.25,West,268,0.0,-999.0,86,-99.99,,,0.00,weatherlink.com 1.10,2013-04-28 08:31:00,
2013-04-28 04:46:00,39.6,36.0,30.24,West,268,0.0,-999.0,87,-99.99,,,0.00,weatherlink.com 1.10,2013-04-28 08:46:00,
2013-04-28 05:01:00,39.7,36.0,30.24,West,268,0.0,-999.0,87,-99.99,,,0.00,weatherlink.com 1.10,2013-04-28 09:01:00,
2013-04-28 05:16:00,39.6,36.0,30.23,West,268,0.0,-999.0,87,-99.99,,,0.00,weatherlink.com 1.10,2013-04-28 09:16:00,
2013-04-28 05:31:00,39.6,36.0,30.23,West,268,0.0,-999.0,88,-99.99,,,0.00,weatherlink.com 1.10,2013-04-28 09:31:00,
2013-04-28 05:46:00,39.5,36.0,30.23,West,268,0.0,-999.0,88,-99.99,,,0.00,weatherlink.com 1.10,2013-04-28 09:46:00,
2013-04-28 06:01:00,39.8,37.0,30.23,ENE,75,0.0,-999.0,88,-99.99,,,0.00,weatherlink.com 1.10,2013-04-28 10:01:00,
2013-04-28 06:16:00,40.1,37.0,30.24,ENE,73,0.0,-999.0,89,-99.99,,,0.00,weatherlink.com 1.10,2013-04-28 10:16:00,
2013-04-28 06:31:00,40.3,37.0,30.24,ESE,111,0.0,-999.0,89,-99.99,,,0.00,weatherlink.com 1.10,2013-04-28 10:31:00,
2013-04-28 06:46:00,40.4,37.0,30.25,ESE,111,0.0,-999.0,88,-99.99,,,0.00,weatherlink.com 1.10,2013-04-28 10:46:00,
2013-04-28 07:01:00,40.4,37.0,30.25,ESE,111,0.0,-999.0,88,-99.99,,,0.00,weatherlink.com 1.10,2013-04-28 11:01:00,
2013-04-28 07:16:00,40.5,37.0,30.25,ESE,111,0.0,-999.0,88,-99.99,,,0.00,weatherlink.com 1.10,2013-04-28 11:16:00,
2013-04-28 07:31:00,41.7,39.0,30.26,ESE,107,0.0,-999.0,90,-99.99,,,0.00,weatherlink.com 1.10,2013-04-28 11:31:00,
2013-04-28 07:46:00,43.3,40.0,30.26,NE,55,0.0,-999.0,89,-99.99,,,0.00,weatherlink.com 1.10,2013-04-28 11:46:00,
2013-04-28 08:01:00,45.2,41.0,30.26,NNE,26,0.0,-999.0,86,-99.99,,,0.00,weatherlink.com 1.10,2013-04-28 12:01:00,
2013-04-28 08:16:00,47.7,42.0,30.26,NE,53,0.0,-999.0,81,-99.99,,,0.00,weatherlink.com 1.10,2013-04-28 12:16:00,
2013-04-28 08:31:00,49.3,43.0,30.25,NNE,30,0.0,-999.0,78,-99.99,,,0.00,weatherlink.com 1.10,2013-04-28 12:31:00,
2013-04-28 08:47:00,51.1,44.0,30.25,NNE,26,1.0,-999.0,76,-99.99,,,0.00,weatherlink.com 1.10,2013-04-28 12:47:00,
2013-04-28 09:02:00,52.9,44.0,30.25,NE,36,0.0,-999.0,73,-99.99,,,0.00,weatherlink.com 1.10,2013-04-28 13:02:00,
2013-04-28 09:17:00,54.7,45.0,30.24,SSW,212,0.0,-999.0,70,-99.99,,,0.00,weatherlink.com 1.10,2013-04-28 13:17:00,
2013-04-28 09:32:00,56.8,44.0,30.24,NNE,31,0.0,-999.0,63,-99.99,,,0.00,weatherlink.com 1.10,2013-04-28 13:32:00,
2013-04-28 09:47:00,58.3,43.0,30.24,WSW,246,0.0,-999.0,58,-99.99,,,0.00,weatherlink.com 1.10,2013-04-28 13:47:00,
2013-04-28 10:02:00,59.9,44.0,30.23,NNW,341,1.0,-999.0,56,-99.99,,,0.00,weatherlink.com 1.10,2013-04-28 14:02:00,
2013-04-28 10:17:00,61.6,44.0,30.23,WSW,248,0.0,-999.0,52,-99.99,,,0.00,weatherlink.com 1.10,2013-04-28 14:17:00,
2013-04-28 10:32:00,63.3,44.0,30.23,South,188,1.0,-999.0,50,-99.99,,,0.00,weatherlink.com 1.10,2013-04-28 14:32:00,
2013-04-28 10:47:00,64.9,45.0,30.23,WSW,242,1.0,-999.0,48,-99.99,,,0.00,weatherlink.com 1.10,2013-04-28 14:47:00,
2013-04-28 11:02:00,65.9,45.0,30.23,South,169,2.0,-999.0,47,-99.99,,,0.00,weatherlink.com 1.10,2013-04-28 15:02:00,
2013-04-28 11:17:00,66.7,44.0,30.23,SSW,211,2.0,-999.0,44,-99.99,,,0.00,weatherlink.com 1.10,2013-04-28 15:17:00,
2013-04-28 11:32:00,67.6,43.0,30.22,South,169,2.0,-999.0,41,-99.99,,,0.00,weatherlink.com 1.10,2013-04-28 15:32:00,
2013-04-28 11:47:00,68.9,45.0,30.22,SSE,162,2.0,-999.0,42,-99.99,,,0.00,weatherlink.com 1.10,2013-04-28 15:47:00,
2013-04-28 12:02:00,69.3,43.0,30.22,SW,225,8.0,-999.0,39,-99.99,,,0.00,weatherlink.com 1.10,2013-04-28 16:02:00,
2013-04-28 12:17:00,70.0,42.0,30.22,SSE,158,7.0,-999.0,37,-99.99,,,0.00,weatherlink.com 1.10,2013-04-28 16:17:00,
2013-04-28 12:32:00,70.1,41.0,30.21,SSE,159,5.0,-999.0,35,-99.99,,,0.00,weatherlink.com 1.10,2013-04-28 16:32:00,
2013-04-28 12:47:00,69.6,42.0,30.20,SSW,194,1.0,-999.0,37,-99.99,,,0.00,weatherlink.com 1.10,2013-04-28 16:47:00,
2013-04-28 13:02:00,69.9,42.0,30.19,SSW,207,4.0,-999.0,37,-99.99,,,0.00,weatherlink.com 1.10,2013-04-28 17:02:00,
2013-04-28 13:17:00,70.3,43.0,30.19,North,11,0.0,-999.0,37,-99.99,,,0.00,weatherlink.com 1.10,2013-04-28 17:17:00,
2013-04-28 13:33:00,69.8,44.0,30.18,West,270,3.0,-999.0,39,-99.99,,,0.00,weatherlink.com 1.10,2013-04-28 17:33:00,
2013-04-28 13:48:00,69.3,42.0,30.18,NE,53,2.0,-999.0,38,-99.99,,,0.00,weatherlink.com 1.10,2013-04-28 17:48:00,
2013-04-28 14:03:00,68.6,43.0,30.18,ENE,75,0.0,-999.0,39,-99.99,,,0.00,weatherlink.com 1.10,2013-04-28 18:03:00,
2013-04-28 14:18:00,68.7,43.0,30.18,South,178,4.0,-999.0,40,-99.99,,,0.00,weatherlink.com 1.10,2013-04-28 18:18:00,
2013-04-28 14:33:00,68.3,42.0,30.17,SW,227,5.0,-999.0,39,-99.99,,,0.00,weatherlink.com 1.10,2013-04-28 18:33:00,
2013-04-28 14:48:00,68.0,42.0,30.17,South,173,2.0,-999.0,39,-99.99,,,0.00,weatherlink.com 1.10,2013-04-28 18:48:00,
2013-04-28 15:03:00,68.0,43.0,30.16,South,188,5.0,-999.0,41,-99.99,,,0.00,weatherlink.com 1.10,2013-04-28 19:03:00,
2013-04-28 15:18:00,67.9,43.0,30.16,SW,221,3.0,-999.0,40,-99.99,,,0.00,weatherlink.com 1.10,2013-04-28 19:18:00,
2013-04-28 15:33:00,67.8,40.0,30.15,East,90,0.0,-999.0,37,-99.99,,,0.00,weatherlink.com 1.10,2013-04-28 19:33:00,
2013-04-28 15:48:00,67.7,40.0,30.15,South,191,2.0,-999.0,36,-99.99,,,0.00,weatherlink.com 1.10,2013-04-28 19:48:00,
2013-04-28 16:03:00,67.3,40.0,30.14,SSW,192,2.0,-999.0,37,-99.99,,,0.00,weatherlink.com 1.10,2013-04-28 20:03:00,
2013-04-28 16:18:00,67.1,39.0,30.14,SW,236,3.0,-999.0,36,-99.99,,,0.00,weatherlink.com 1.10,2013-04-28 20:18:00,
2013-04-28 16:33:00,67.0,40.0,30.14,NE,39,0.0,-999.0,37,-99.99,,,0.00,weatherlink.com 1.10,2013-04-28 20:33:00,
2013-04-28 16:48:00,66.9,39.0,30.13,SE,144,6.0,-999.0,36,-99.99,,,0.00,weatherlink.com 1.10,2013-04-28 20:48:00,
2013-04-28 17:03:00,66.5,39.0,30.12,West,279,1.0,-999.0,36,-99.99,,,0.00,weatherlink.com 1.10,2013-04-28 21:03:00,
2013-04-28 17:18:00,65.9,37.0,30.13,SSW,207,1.0,-999.0,35,-99.99,,,0.00,weatherlink.com 1.10,2013-04-28 21:18:00,
2013-04-28 17:33:00,65.3,38.0,30.13,ENE,77,0.0,-999.0,36,-99.99,,,0.00,weatherlink.com 1.10,2013-04-28 21:33:00,
2013-04-28 17:48:00,64.9,38.0,30.12,WSW,240,3.0,-999.0,37,-99.99,,,0.00,weatherlink.com 1.10,2013-04-28 21:48:00,
2013-04-28 18:03:00,64.5,37.0,30.13,WSW,237,3.0,-999.0,36,-99.99,,,0.00,weatherlink.com 1.10,2013-04-28 22:03:00,
2013-04-28 18:18:00,64.2,38.0,30.13,SW,214,1.0,-999.0,38,-99.99,,,0.00,weatherlink.com 1.10,2013-04-28 22:18:00,
2013-04-28 18:33:00,63.9,38.0,30.13,South,184,0.0,-999.0,38,-99.99,,,0.00,weatherlink.com 1.10,2013-04-28 22:33:00,
2013-04-28 18:48:00,63.5,38.0,30.12,South,173,0.0,-999.0,39,-99.99,,,0.00,weatherlink.com 1.10,2013-04-28 22:48:00,
2013-04-28 19:03:00,63.0,44.0,30.13,SSW,206,6.0,-999.0,50,-99.99,,,0.00,weatherlink.com 1.10,2013-04-28 23:03:00,
2013-04-28 19:18:00,61.1,45.0,30.13,West,279,3.0,-999.0,56,-99.99,,,0.00,weatherlink.com 1.10,2013-04-28 23:18:00,
2013-04-28 19:33:00,59.8,46.0,30.13,SW,221,3.0,-999.0,60,-99.99,,,0.00,weatherlink.com 1.10,2013-04-28 23:33:00,
2013-04-28 19:48:00,58.5,45.0,30.13,SSW,210,3.0,-999.0,61,-99.99,,,0.00,weatherlink.com 1.10,2013-04-28 23:48:00,
2013-04-28 20:03:00,57.7,45.0,30.13,SW,221,1.0,-999.0,63,-99.99,,,0.00,weatherlink.com 1.10,2013-04-29 00:03:00,
2013-04-28 20:18:00,57.1,46.0,30.14,SW,232,1.0,-999.0,67,-99.99,,,0.00,weatherlink.com 1.10,2013-04-29 00:18:00,
2013-04-28 20:33:00,56.8,47.0,30.13,SW,232,0.0,-999.0,70,-99.99,,,0.01,weatherlink.com 1.10,2013-04-29 00:33:00,
2013-04-28 20:48:00,56.2,48.0,30.14,SW,232,0.0,-999.0,73,-99.99,,,0.01,weatherlink.com 1.10,2013-04-29 00:48:00,
2013-04-28 21:03:00,55.6,49.0,30.15,SW,232,0.0,-999.0,77,-99.99,,,0.02,weatherlink.com 1.10,2013-04-29 01:03:00,
2013-04-28 21:18:00,54.8,49.0,30.16,SW,232,0.0,-999.0,80,-99.99,,,0.02,weatherlink.com 1.10,2013-04-29 01:18:00,
2013-04-28 21:25:00,54.5,48.8,30.16,SW,232,0.0,0.0,81,0.00,,,0.02,Wunderground v.1.15,2013-04-29 01:25:00,
2013-04-28 21:30:00,54.3,48.6,30.16,SW,232,0.0,0.0,81,0.00,,,0.02,Wunderground v.1.15,2013-04-29 01:30:00,
2013-04-28 21:33:00,54.2,49.0,30.17,SW,232,0.0,-999.0,82,-99.99,,,0.02,weatherlink.com 1.10,2013-04-29 01:33:00,
2013-04-28 21:35:00,54.1,48.7,30.17,SW,232,0.0,0.0,82,0.00,,,0.02,Wunderground v.1.15,2013-04-29 01:35:00,
2013-04-28 21:45:00,53.6,48.6,30.16,SW,232,0.0,0.0,83,0.00,,,0.02,Wunderground v.1.15,2013-04-29 01:45:00,
2013-04-28 21:48:00,53.3,48.0,30.16,SW,232,0.0,-999.0,83,-99.99,,,0.02,weatherlink.com 1.10,2013-04-29 01:48:00,
2013-04-28 21:55:00,53.1,48.4,30.16,SW,232,0.0,0.0,84,0.00,,,0.02,Wunderground v.1.15,2013-04-29 01:55:00,
2013-04-28 22:04:00,52.8,48.0,30.15,SW,232,0.0,-999.0,84,-99.99,,,0.02,weatherlink.com 1.10,2013-04-29 02:04:00,
2013-04-28 22:15:00,52.6,46.6,30.15,ENE,64,0.0,0.0,80,0.00,,,0.02,Wunderground v.1.15,2013-04-29 02:15:00,
2013-04-28 22:18:00,52.9,46.0,30.14,ENE,57,0.0,-999.0,77,-99.99,,,0.02,weatherlink.com 1.10,2013-04-29 02:18:00,
2013-04-28 22:34:00,53.8,45.0,30.14,NNE,13,0.0,-999.0,73,-99.99,,,0.02,weatherlink.com 1.10,2013-04-29 02:34:00,
2013-04-28 22:49:00,54.2,45.0,30.14,NE,52,0.0,-999.0,72,-99.99,,,0.02,weatherlink.com 1.10,2013-04-29 02:49:00,
2013-04-28 23:04:00,54.4,46.0,30.14,NE,46,0.0,-999.0,72,-99.99,,,0.02,weatherlink.com 1.10,2013-04-29 03:04:00,
2013-04-28 23:19:00,54.7,45.0,30.14,NE,51,0.0,-999.0,70,-99.99,,,0.02,weatherlink.com 1.10,2013-04-29 03:19:00,
2013-04-28 23:34:00,54.8,45.0,30.14,NE,53,0.0,-999.0,70,-99.99,,,0.02,weatherlink.com 1.10,2013-04-29 03:34:00,
2013-04-28 23:49:00,54.7,44.0,30.13,NE,48,0.0,-999.0,67,-99.99,,,0.02,weatherlink.com 1.10,2013-04-29 03:49:00,